Location: Arborea
(39.7744°N, 8.5819°E)
Time: 16:01:47
(UTC+00:00)

Cosmos 332 Rocket - Pass Details

Date: 06 June 2022
Orbit: 681 x 703 km, 74.0° (Epoch: 29 June)

Event Time Altitude Azimuth Distance (km) Brightness Sun altitude
Exits shadow 20:55:03 11° 81° (E) 2,052 6.0 -18.4°
Drops below altitude 10° 20:55:40 10° 73° (ENE) 2,124 6.1 -18.5°
Sets 20:59:29 0° 43° (NE) 3,048 7.3 -18.9°
